| time (UTC) | temp C | wind direction | speed KPH | gust KPH | rain 1hr cm | rain 24hr cm | rain mn cm | humidity % | barometer mb |
| 20260507191545 | 11 | 42 | 0.0 | 0.0 | 0.00 | 0.00 | 0.00 | 83 | 1016.2 |
| 20260507190013 | 12 | 42 | 0.0 | 0.0 | 0.00 | 0.00 | 0.00 | 82 | 1016.2 |
| 20260507184532 | 12 | 42 | 0.0 | 0.0 | 0.00 | 0.00 | 0.00 | 81 | 1016.2 |
| 20260507183112 | 12 | 42 | 0.0 | 0.0 | 0.00 | 0.00 | 0.00 | 79 | 1016.2 |
| 20260507181548 | 12 | 42 | 0.0 | 0.0 | 0.00 | 0.00 | 0.00 | 79 | 1016.1 |
| 20260507180031 | 12 | 42 | 0.0 | 0.0 | 0.00 | 0.00 | 0.00 | 77 | 1016.1 |
| 20260507174521 | 12 | 42 | 0.0 | 0.0 | 0.00 | 0.00 | 0.00 | 75 | 1016.1 |
| 20260507173045 | 13 | 42 | 0.0 | 3.2 | 0.00 | 0.00 | 0.00 | 74 | 1016.1 |
| 20260507171606 | 13 | 52 | 1.6 | 4.8 | 0.00 | 0.00 | 0.00 | 73 | 1016.1 |
| 20260507170022 | 13 | 360 | 1.6 | 4.8 | 0.00 | 0.00 | 0.00 | 70 | 1016.0 |
| 20260507164546 | 13 | 360 | 3.2 | 4.8 | 0.00 | 0.00 | 0.00 | 72 | 1016.0 |
| 20260507163036 | 13 | 40 | 1.6 | 6.4 | 0.00 | 0.00 | 0.00 | 71 | 1016.0 |
| 20260507161508 | 13 | 98 | 1.6 | 8.0 | 0.00 | 0.00 | 0.00 | 69 | 1016.0 |
| 20260507160056 | 13 | 51 | 1.6 | 4.8 | 0.00 | 0.00 | 0.00 | 70 | 1016.0 |
| 20260507154533 | 13 | 51 | 0.0 | 3.2 | 0.00 | 0.00 | 0.00 | 72 | 1016.0 |
| 20260507153051 | 13 | 51 | 0.0 | 1.6 | 0.00 | 0.00 | 0.00 | 72 | 1016.1 |
| 20260507151507 | 13 | 51 | 0.0 | 0.0 | 0.00 | 0.00 | 0.00 | 72 | 1016.1 |
| 20260507150021 | 13 | 51 | 0.0 | 3.2 | 0.00 | 0.00 | 0.00 | 73 | 1016.1 |
| 20260507144505 | 13 | 51 | 0.0 | 3.2 | 0.00 | 0.00 | 0.00 | 71 | 1016.1 |
| 20260507143048 | 13 | 51 | 1.6 | 4.8 | 0.00 | 0.00 | 0.00 | 69 | 1016.1 |
| 20260507141534 | 14 | 331 | 1.6 | 4.8 | 0.00 | 0.00 | 0.00 | 69 | 1016.1 |
| 20260507140019 | 14 | 34 | 3.2 | 9.7 | 0.00 | 0.00 | 0.00 | 69 | 1016.2 |
| 20260507134557 | 14 | 55 | 3.2 | 8.0 | 0.00 | 0.00 | 0.00 | 69 | 1016.3 |
| 20260507133028 | 14 | 355 | 4.8 | 11.3 | 0.00 | 0.00 | 0.00 | 68 | 1016.2 |
| 20260507131606 | 15 | 31 | 4.8 | 12.9 | 0.00 | 0.00 | 0.00 | 68 | 1016.3 |
| 20260507130035 | 15 | 68 | 1.6 | 4.8 | 0.00 | 0.00 | 0.00 | 67 | 1016.3 |
| 20260507124505 | 15 | 9 | 9.7 | 14.5 | 0.00 | 0.00 | 0.00 | 67 | 1016.3 |
| 20260507123027 | 14 | 326 | 4.8 | 11.3 | 0.00 | 0.00 | 0.00 | 71 | 1016.4 |
| 20260507121600 | 13 | 355 | 3.2 | 11.3 | 0.00 | 0.00 | 0.00 | 68 | 1016.4 |
| 20260507120025 | 13 | 78 | 1.6 | 9.7 | 0.00 | 0.00 | 0.00 | 70 | 1016.4 |
| 20260507114612 | 13 | 31 | 6.4 | 11.3 | 0.00 | 0.00 | 0.00 | 71 | 1016.4 |
| 20260507113104 | 13 | 29 | 4.8 | 11.3 | 0.00 | 0.00 | 0.00 | 72 | 1016.3 |
| 20260507111540 | 13 | 17 | 3.2 | 8.0 | 0.00 | 0.00 | 0.00 | 72 | 1016.3 |
| 20260507110023 | 12 | 16 | 6.4 | 14.5 | 0.00 | 0.00 | 0.00 | 75 | 1016.3 |
| 20260507104509 | 12 | 17 | 4.8 | 11.3 | 0.00 | 0.03 | 0.00 | 77 | 1016.4 |
| 20260507103004 | 12 | 348 | 1.6 | 9.7 | 0.00 | 0.03 | 0.00 | 78 | 1016.4 |
| 20260507101550 | 12 | 66 | 6.4 | 9.7 | 0.00 | 0.03 | 0.00 | 77 | 1016.4 |
| 20260507100019 | 12 | 34 | 4.8 | 9.7 | 0.00 | 0.03 | 0.00 | 78 | 1016.4 |
| 20260507094547 | 12 | 351 | 3.2 | 11.3 | 0.00 | 0.05 | 0.00 | 78 | 1016.4 |
| 20260507093018 | 12 | 36 | 4.8 | 12.9 | 0.00 | 0.05 | 0.00 | 79 | 1016.3 |
| 20260507091543 | 12 | 21 | 3.2 | 12.9 | 0.00 | 0.05 | 0.00 | 81 | 1016.2 |
| 20260507090009 | 12 | 36 | 6.4 | 11.3 | 0.00 | 0.13 | 0.00 | 80 | 1016.1 |
| 20260507084603 | 12 | 23 | 9.7 | 14.5 | 0.00 | 0.13 | 0.00 | 82 | 1016.0 |
| 20260507083027 | 11 | 21 | 4.8 | 11.3 | 0.00 | 0.13 | 0.00 | 86 | 1016.1 |
| 20260507081508 | 10 | 360 | 4.8 | 8.0 | 0.00 | 0.13 | 0.00 | 91 | 1016.0 |
| 20260507080046 | 10 | 28 | 4.8 | 9.7 | 0.00 | 0.13 | 0.00 | 94 | 1015.9 |
| 20260507074515 | 9 | 18 | 3.2 | 11.3 | 0.00 | 0.15 | 0.00 | 96 | 1015.8 |
| 20260507073102 | 8 | 13 | 3.2 | 11.3 | 0.00 | 0.15 | 0.00 | 97 | 1015.8 |
| 20260507071526 | 8 | 355 | 3.2 | 8.0 | 0.00 | 0.15 | 0.00 | 98 | 1015.7 |
| 20260507070104 | 8 | 351 | 4.8 | 8.0 | 0.00 | 0.15 | 0.00 | 98 | 1015.6 |
| 20260507064540 | 8 | 355 | 1.6 | 4.8 | 0.00 | 0.18 | 0.00 | 98 | 1015.5 |
| 20260507063009 | 7 | 355 | 3.2 | 4.8 | 0.00 | 0.18 | 0.00 | 98 | 1015.4 |
| 20260507061545 | 7 | 355 | 1.6 | 4.8 | 0.00 | 0.18 | 0.00 | 98 | 1015.2 |
| 20260507060016 | 6 | 276 | 0.0 | 0.0 | 0.00 | 0.18 | 0.00 | 97 | 1015.2 |
| 20260507054550 | 6 | 276 | 0.0 | 0.0 | 0.00 | 0.25 | 0.00 | 97 | 1015.0 |
| 20260507053027 | 6 | 276 | 0.0 | 0.0 | 0.00 | 0.25 | 0.00 | 97 | 1014.8 |
| 20260507051602 | 6 | 276 | 0.0 | 1.6 | 0.00 | 0.25 | 0.00 | 97 | 1014.8 |
| 20260507050036 | 5 | 276 | 0.0 | 1.6 | 0.00 | 0.25 | 0.00 | 97 | 1014.6 |
| 20260507044515 | 5 | 276 | 1.6 | 3.2 | 0.00 | 0.36 | 0.00 | 97 | 1014.4 |
| 20260507043101 | 5 | 276 | 0.0 | 1.6 | 0.00 | 0.36 | 0.00 | 97 | 1014.3 |
| 20260507041529 | 5 | 276 | 1.6 | 3.2 | 0.00 | 0.36 | 0.00 | 97 | 1014.2 |
| 20260507040100 | 5 | 276 | 0.0 | 3.2 | 0.00 | 0.36 | 0.00 | 97 | 1014.1 |
| 20260507034541 | 5 | 276 | 0.0 | 3.2 | 0.00 | 0.41 | 0.00 | 97 | 1014.0 |
| 20260507033009 | 5 | 276 | 0.0 | 3.2 | 0.00 | 0.41 | 0.00 | 97 | 1014.0 |
| 20260507031547 | 5 | 276 | 0.0 | 1.6 | 0.00 | 0.41 | 0.00 | 97 | 1014.0 |
| 20260507030025 | 5 | 276 | 0.0 | 1.6 | 0.00 | 0.41 | 0.00 | 96 | 1013.9 |
| 20260507024600 | 5 | 276 | 0.0 | 1.6 | 0.00 | 0.51 | 0.00 | 96 | 1013.8 |
| 20260507023035 | 5 | 276 | 1.6 | 3.2 | 0.00 | 0.51 | 0.00 | 96 | 1013.7 |
| 20260507021513 | 5 | 276 | 0.0 | 1.6 | 0.00 | 0.51 | 0.00 | 96 | 1013.6 |
| 20260507014533 | 4 | 304 | 1.6 | 3.2 | 0.00 | 0.61 | 0.00 | 95 | 1013.5 |
| 20260507013003 | 4 | 11 | 1.6 | 3.2 | 0.00 | 0.61 | 0.00 | 95 | 1013.4 |
| 20260507011542 | 4 | 11 | 0.0 | 3.2 | 0.00 | 0.61 | 0.00 | 95 | 1013.4 |
| 20260507010004 | 5 | 11 | 0.0 | 1.6 | 0.00 | 0.66 | 0.00 | 95 | 1013.3 |
| 20260507004544 | 5 | 11 | 0.0 | 1.6 | 0.00 | 0.66 | 0.00 | 94 | 1013.3 |
| 20260507003016 | 5 | 11 | 0.0 | 1.6 | 0.00 | 0.66 | 0.00 | 94 | 1013.3 |
| 20260507001611 | 5 | 11 | 0.0 | 0.0 | 0.00 | 0.66 | 0.00 | 94 | 1013.2 |
| 20260507000032 | 6 | 11 | 0.0 | 0.0 | 0.00 | 0.66 | 0.00 | 94 | 1013.2 |
| 20260506234603 | 6 | 11 | 0.0 | 1.6 | 0.00 | 0.71 | 0.00 | 94 | 1013.2 |
| 20260506233032 | 6 | 11 | 0.0 | 3.2 | 0.00 | 0.71 | 0.00 | 93 | 1013.1 |
| 20260506231510 | 6 | 11 | 0.0 | 1.6 | 0.00 | 0.71 | 0.00 | 92 | 1013.0 |
| 20260506230056 | 6 | 11 | 0.0 | 0.0 | 0.00 | 0.71 | 0.00 | 92 | 1012.8 |
| 20260506224525 | 6 | 11 | 0.0 | 1.6 | 0.00 | 0.79 | 0.71 | 91 | 1012.8 |
| 20260506223029 | 7 | 318 | 1.6 | 6.4 | 0.00 | 0.79 | 0.71 | 91 | 1012.7 |
| 20260506221517 | 7 | 9 | 6.4 | 11.3 | 0.00 | 0.79 | 0.71 | 91 | 1012.5 |
| 20260506220057 | 8 | 350 | 1.6 | 6.4 | 0.00 | 0.79 | 0.71 | 91 | 1012.4 |
| 20260506214544 | 8 | 360 | 4.8 | 9.7 | 0.00 | 0.81 | 0.71 | 91 | 1012.4 |
| 20260506213019 | 8 | 355 | 4.8 | 9.7 | 0.00 | 0.81 | 0.71 | 91 | 1012.4 |
| 20260506211507 | 8 | 15 | 3.2 | 9.7 | 0.00 | 0.81 | 0.71 | 92 | 1012.3 |
| 20260506210057 | 8 | 355 | 4.8 | 8.0 | 0.00 | 0.81 | 0.71 | 93 | 1012.1 |
| 20260506204545 | 9 | 25 | 3.2 | 8.0 | 0.00 | 0.84 | 0.71 | 92 | 1012.0 |
| 20260506203015 | 9 | 30 | 1.6 | 4.8 | 0.00 | 0.84 | 0.71 | 92 | 1011.8 |
| 20260506201557 | 10 | 344 | 0.0 | 3.2 | 0.00 | 0.84 | 0.71 | 92 | 1011.5 |
| 20260506200101 | 10 | 344 | 0.0 | 4.8 | 0.00 | 0.84 | 0.71 | 91 | 1011.5 |
| 20260506194537 | 10 | 254 | 0.0 | 6.4 | 0.00 | 0.89 | 0.71 | 91 | 1011.4 |
| 20260506193032 | 10 | 278 | 0.0 | 4.8 | 0.00 | 0.89 | 0.71 | 91 | 1011.2 |